Port Aransas, TX (PTAT2)

Conditions for Tuesday

Daily
Weekly
Monthly
Marine Data Graph

Marine & Boating Location Search

Enter a coastal zip code for marine weather.

General Information

Location: 27.826 -97.051
Buoy Type: C-MAN Station
Payload: MARS payload
Owned by: NDBC
Windspeed: Measured by obtained from anemometer
Sea Surface: Measured by Intake

Weather and Wave Data

Time Temp Humidity Wind Pressure
  Air
(°F)
Water
(°F)
  Dir Speed
(kts)
Speed
(mph)
Atmo.
(in)
Tend.
(in)
20:00 58 56 92 NNE 6.0 6.9 30.19 +0.02
21:00 58 56 91 NE 5.0 5.8 30.21 +0.04
22:00 59 56 83 ENE 8.0 9.2 30.20 +0.03
23:00 60 56 74 East 8.0 9.2 30.20 +0.01
00:00 60 56 76 East 6.0 6.9 30.20 -
01:00 60 56 77 ESE 8.0 9.2 30.19 -0.01
02:00 60 56 81 East 6.0 6.9 30.18 -0.02
03:00 60 56 81 East 5.0 5.8 30.19 -0.01
04:00 60 56 78 East 4.0 4.6 30.20 +0.01
05:00 60 56 78 NE 2.0 2.3 30.21 +0.03
06:00 60 56 80 NNE 2.0 2.3 30.23 +0.04
07:00 59 56 80 North 4.0 4.6 30.25 +0.05
08:00 58 55 83 North 4.0 4.6 30.26 +0.05
09:00 59 55 83 North 6.0 6.9 30.28 +0.05
10:00 59 56 77 NNE 7.0 8.1 30.30 +0.06
11:00 58 56 82 NE 7.0 8.1 30.31 +0.04
12:00 59 56 76 NE 9.0 10.4 30.30 +0.01
13:00 58 56 83 NE 9.0 10.4 30.26 -0.04
14:00 58 57 84 NE 9.0 10.4 30.24 -0.07
15:00 58 57 86 NE 7.0 8.1 30.23 -0.06
16:00 59 57 83 NE 7.0 8.1 30.24 -0.03
17:00 59 57 87 NE 9.0 10.4 30.24 -
18:00 59 57 92 NE 9.0 10.4 30.23 -
19:00 59 57 93 NE 10.0 11.5 30.24 -
20:00 59 57 93 NE 9.0 10.4 30.25 +0.01
21:00 58 56 96 NE 8.0 9.2 30.26 +0.03
22:00 60 56 92 NE 5.0 5.8 30.27 +0.03
23:00 60 56 87 NNE 3.0 3.5 30.27 +0.03
00:00 62 56 83 East 4.0 4.6 30.27 +0.01
01:00 61 56 83 East 4.0 4.6 30.27 -
02:00 62 56 88 East 4.0 4.6 30.27 -0.01
03:00 62 56 89 ENE 3.0 3.5 30.26 -0.01

Detailed Wave Spectra